Jaipur, India

6:29 AM IST on July 23, 2017 (GMT +0530)
Jaipur

Weather History for VIJP - April, 2013

Change the Weather History Date:

Tuesday, April 16, 2013

  Actual Average Record
Temperature  
Mean Temperature 88 °F -  
Max Temperature 104 °F - - ()
Min Temperature 73 °F - - ()
Cooling Degree Days 24    
Growing Degree Days 38 (Base 50)    
Moisture  
Dew Point 43 °F    
Average Humidity 20    
Maximum Humidity 44    
Minimum Humidity 5    
Precipitation  
Precipitation 0.00 in - - ()
Sea Level Pressure  
Sea Level Pressure 29.64 in    
Wind  
Wind Speed 5 mph ()    
Max Wind Speed 21 mph    
Max Gust Speed -    
Visibility 2.2 miles    
Events Rain    
T = Trace of Precipitation, MM = Missing Value Source: Averaged Metar Reports

Daily Weather History Graph

Daily Weather History Graph

Search for Another Location

Airport or City:

Trip Planner

Search our weather history database for the weather conditions in past years. The results will help you decide how hot, cold, wet, or windy it might be!

Date:

Astronomy

Apr. 16, 2013 Rise Set
Actual Time 6:02 AM IST 6:51 PM IST
Civil Twilight 5:38 AM IST 7:15 PM IST
Nautical Twilight 5:10 AM IST 7:43 PM IST
Astronomical Twilight 4:41 AM IST 8:11 PM IST
Moon 10:11 AM IST (4/16) 11:58 PM IST (4/16)
Length of Visible Light 13h 36m
Length of Day
12h 49m
Waxing Crescent, 29% of the Moon is Illuminated
Apr 16
Waxing Crescent
Apr 18
First Quarter
Apr 26
Full
May 2
Last Quarter
May 10
New

Hourly Weather History & Observations

Time (IST) Temp. Dew Point Humidity Pressure Visibility Wind Dir Wind Speed Gust Speed Precip Events Conditions
12:00 AM 82.4 °F 50.0 °F 32% 29.71 in 1.9 mi Calm Calm - N/A   Haze
1:00 AM 80.6 °F 44.6 °F 28% 29.71 in 1.9 mi Calm Calm - N/A   Haze
2:00 AM 78.8 °F 46.4 °F 32% 29.68 in 1.9 mi Calm Calm - N/A   Haze
2:30 AM 76 °F 50 °F 29% 29.64 in 1 mi Calm Calm - - Rain Light Drizzle
3:00 AM 77.0 °F 50.0 °F 39% 29.68 in 1.9 mi Calm Calm - N/A   Haze
4:00 AM 77.0 °F 51.8 °F 41% 29.65 in 1.9 mi Calm Calm - N/A   Haze
5:30 AM 74 °F 52 °F 36% 29.63 in 1 mi Calm Calm - -   Haze
6:00 AM 75.2 °F 51.8 °F 44% 29.68 in 1.9 mi Calm Calm - N/A   Haze
7:00 AM 75.2 °F 50.0 °F 41% 29.68 in 1.9 mi Calm Calm - N/A   Haze
8:00 AM 82.4 °F 50.0 °F 32% 29.71 in 1.9 mi Calm Calm - N/A   Haze
8:30 AM 86 °F 50 °F 19% 29.66 in 1 mi South 2.3 mph - -   Haze
9:00 AM 87.8 °F 44.6 °F 22% 29.71 in 1.9 mi West 6.9 mph - N/A   Haze
10:30 AM 95.0 °F 46.4 °F 19% 29.71 in 3.1 mi WNW 11.5 mph - N/A   Haze
11:00 AM 98.6 °F 44.6 °F 16% 29.71 in 3.1 mi WNW 13.8 mph - N/A   Haze
11:30 AM 99 °F 47 °F 10% 29.60 in 2 mi WNW 13.8 mph - -   Haze
11:30 AM 100.4 °F 44.6 °F 15% 29.71 in 3.1 mi WNW 13.8 mph - N/A   Haze
12:00 PM 100.4 °F 42.8 °F 14% 29.68 in 3.1 mi West 18.4 mph - N/A   Haze
1:00 PM 102.2 °F 41.0 °F 12% 29.65 in 3.1 mi WNW 16.1 mph - N/A   Haze
2:00 PM 104.0 °F 35.6 °F 9% 29.62 in 3.1 mi West 20.7 mph - N/A   Haze
2:30 PM 103 °F 37 °F 5% 29.52 in 2 mi WNW 11.5 mph - -   Haze
3:00 PM 102.2 °F 35.6 °F 10% 29.62 in 3.1 mi WNW 18.4 mph - N/A   Haze
4:00 PM 102.2 °F 33.8 °F 9% 29.59 in 3.1 mi West 17.3 mph - N/A   Haze
5:00 PM 102.2 °F 33.8 °F 9% 29.59 in 3.1 mi West 19.6 mph - N/A   Haze
5:30 PM 101 °F 36 °F 5% 29.47 in 2 mi West 13.8 mph - -   Haze
6:00 PM 100.4 °F 32.0 °F 9% 29.59 in 3.1 mi West 19.6 mph - N/A   Haze
7:00 PM 96.8 °F 33.8 °F 11% 29.59 in 2.2 mi West 13.8 mph - N/A   Haze
8:00 PM 93.2 °F 35.6 °F 13% 29.62 in 2.2 mi West 8.1 mph - N/A   Haze
8:30 PM 93 °F 39 °F 8% 29.52 in 1 mi West 2.3 mph - -   Haze
9:00 PM 91.4 °F 39.2 °F 16% 29.62 in 2.2 mi West 6.9 mph - N/A   Haze
10:00 PM 89.6 °F 41.0 °F 18% 29.65 in 2.2 mi West 6.9 mph - N/A   Haze
11:00 PM 87.8 °F 41.0 °F 19% 29.65 in 2.2 mi WNW 5.8 mph - N/A   Haze
11:30 PM 88 °F 47 °F 15% 29.56 in 1 mi WNW 5.8 mph - -   Haze